Time,TemperatureF,DewpointF,PressureIn,WindDirection,WindDirectionDegrees,WindSpeedMPH,WindSpeedGustMPH,Humidity,HourlyPrecipIn,Conditions,Clouds,dailyrainin,SoftwareType,DateUTC
2013-01-20 00:00:00,41.0,25.2,29.73,ENE,63,3.5,3.5,53,0.02,RA,,0.00,WeatherDisplay:10.37,2013-01-20 05:00:00,
2013-01-20 00:01:00,40.9,24.6,29.73,NE,38,3.5,3.5,52,0.02,RA,,0.00,WeatherDisplay:10.37,2013-01-20 05:01:00,
2013-01-20 00:03:00,40.8,24.5,29.73,ENE,78,3.5,3.5,52,0.02,RA,,0.00,WeatherDisplay:10.37,2013-01-20 05:03:00,
2013-01-20 00:04:00,40.8,25.0,29.73,SE,132,2.3,2.3,53,0.02,RA,,0.00,WeatherDisplay:10.37,2013-01-20 05:04:00,
2013-01-20 00:09:00,41.3,23.6,29.73,SW,222,11.5,11.5,49,0.02,RA,,0.00,WeatherDisplay:10.37,2013-01-20 05:09:00,
2013-01-20 00:14:00,41.5,23.2,29.73,WSW,248,5.8,5.8,48,0.02,CLR,,0.00,WeatherDisplay:10.37,2013-01-20 05:14:00,
2013-01-20 00:19:00,41.4,23.6,29.74,ENE,60,4.6,4.6,49,0.02,CLR,,0.00,WeatherDisplay:10.37,2013-01-20 05:19:00,
2013-01-20 00:24:00,41.4,23.6,29.73,West,261,6.9,6.9,49,0.01,CLR,,0.00,WeatherDisplay:10.37,2013-01-20 05:24:00,
2013-01-20 00:29:00,41.5,23.7,29.73,SSE,166,10.4,10.4,49,0.01,CLR,,0.00,WeatherDisplay:10.37,2013-01-20 05:29:00,
2013-01-20 00:34:00,41.3,24.0,29.72,WNW,300,4.6,4.6,50,0.01,CLR,,0.00,WeatherDisplay:10.37,2013-01-20 05:34:00,
2013-01-20 00:39:00,41.1,23.9,29.72,SSW,205,10.4,10.4,50,0.01,CLR,,0.00,WeatherDisplay:10.37,2013-01-20 05:39:00,
2013-01-20 00:44:00,41.1,24.3,29.72,WNW,300,9.2,9.2,51,0.01,CLR,,0.00,WeatherDisplay:10.37,2013-01-20 05:44:00,
2013-01-20 00:49:00,41.0,24.2,29.71,WNW,285,3.5,3.5,51,0.01,CLR,,0.00,WeatherDisplay:10.37,2013-01-20 05:49:00,
2013-01-20 00:54:00,40.9,24.1,29.70,SW,230,3.5,3.5,51,0.01,CLR,,0.00,WeatherDisplay:10.37,2013-01-20 05:54:00,
2013-01-20 00:59:00,40.8,25.0,29.69,West,273,3.5,3.5,53,0.00,CLR,,0.00,WeatherDisplay:10.37,2013-01-20 05:59:00,
2013-01-20 01:04:00,40.8,24.5,29.69,SSE,167,6.9,6.9,52,0.00,CLR,,0.00,WeatherDisplay:10.37,2013-01-20 06:04:00,
2013-01-20 01:09:00,40.8,24.1,29.69,SE,136,5.8,5.8,51,0.00,CLR,,0.00,WeatherDisplay:10.37,2013-01-20 06:09:00,
2013-01-20 01:14:00,40.9,24.1,29.69,West,259,3.5,3.5,51,0.00,CLR,,0.00,WeatherDisplay:10.37,2013-01-20 06:14:00,
2013-01-20 01:19:00,40.9,24.1,29.69,WNW,292,2.3,2.3,51,0.00,CLR,,0.00,WeatherDisplay:10.37,2013-01-20 06:19:00,
2013-01-20 01:24:00,41.0,24.2,29.68,SW,218,3.5,3.5,51,0.00,CLR,,0.00,WeatherDisplay:10.37,2013-01-20 06:24:00,
2013-01-20 01:29:00,40.9,24.1,29.68,WSW,240,3.5,3.5,51,0.00,CLR,,0.00,WeatherDisplay:10.37,2013-01-20 06:29:00,
2013-01-20 01:34:00,41.0,24.2,29.68,SE,125,3.5,3.5,51,0.00,CLR,,0.00,WeatherDisplay:10.37,2013-01-20 06:34:00,
2013-01-20 01:39:00,40.8,23.6,29.67,ESE,102,5.8,5.8,50,0.00,CLR,,0.00,WeatherDisplay:10.37,2013-01-20 06:39:00,
2013-01-20 01:44:00,40.7,24.0,29.67,West,267,3.5,3.5,51,0.00,CLR,,0.00,WeatherDisplay:10.37,2013-01-20 06:44:00,
2013-01-20 01:49:00,40.4,23.7,29.67,East,80,3.5,3.5,51,0.00,CLR,,0.00,WeatherDisplay:10.37,2013-01-20 06:49:00,
2013-01-20 01:54:00,40.8,24.1,29.67,ESE,107,8.1,8.1,51,0.00,CLR,,0.00,WeatherDisplay:10.37,2013-01-20 06:54:00,
2013-01-20 01:59:00,40.8,24.1,29.67,South,169,6.9,6.9,51,0.00,CLR,,0.00,WeatherDisplay:10.37,2013-01-20 06:59:00,
2013-01-20 02:04:00,40.9,23.7,29.67,East,85,3.5,3.5,50,0.00,CLR,,0.00,WeatherDisplay:10.37,2013-01-20 07:04:00,
2013-01-20 02:09:00,41.1,23.4,29.67,South,175,4.6,4.6,49,0.00,CLR,,0.00,WeatherDisplay:10.37,2013-01-20 07:09:00,
2013-01-20 02:14:00,41.0,23.8,29.66,South,181,9.2,9.2,50,0.01,RA,,0.01,WeatherDisplay:10.37,2013-01-20 07:14:00,
2013-01-20 02:19:00,40.8,23.6,29.66,WSW,252,9.2,9.2,50,0.01,RA,,0.01,WeatherDisplay:10.37,2013-01-20 07:19:00,
2013-01-20 02:24:00,40.8,23.6,29.65,West,264,10.4,10.4,50,0.01,CLR,,0.01,WeatherDisplay:10.37,2013-01-20 07:24:00,
2013-01-20 02:29:00,40.8,23.6,29.65,SE,135,3.5,3.5,50,0.01,CLR,,0.01,WeatherDisplay:10.37,2013-01-20 07:29:00,
2013-01-20 02:34:00,40.7,24.0,29.64,ESE,111,18.4,18.4,51,0.01,CLR,,0.01,WeatherDisplay:10.37,2013-01-20 07:34:00,
2013-01-20 02:39:00,40.9,23.2,29.65,West,260,5.8,5.8,49,0.01,CLR,,0.01,WeatherDisplay:10.37,2013-01-20 07:39:00,
2013-01-20 02:44:00,40.9,24.1,29.64,South,172,3.5,3.5,51,0.01,CLR,,0.01,WeatherDisplay:10.37,2013-01-20 07:44:00,
2013-01-20 02:49:00,40.8,23.6,29.64,WSW,238,8.1,8.1,50,0.02,RA,,0.02,WeatherDisplay:10.37,2013-01-20 07:49:00,
2013-01-20 02:54:00,40.9,23.7,29.63,ENE,74,2.3,2.3,50,0.02,RA,,0.02,WeatherDisplay:10.37,2013-01-20 07:54:00,
2013-01-20 02:59:00,40.7,24.0,29.62,SSW,196,5.8,5.8,51,0.02,,,0.02,WeatherDisplay:10.37,2013-01-20 07:59:00,
2013-01-20 03:04:00,40.6,23.9,29.61,ESE,106,3.5,3.5,51,0.02,CLR,,0.02,WeatherDisplay:10.37,2013-01-20 08:04:00,
2013-01-20 03:09:00,40.6,23.9,29.61,ENE,76,3.5,3.5,51,0.02,CLR,,0.02,WeatherDisplay:10.37,2013-01-20 08:09:00,
2013-01-20 03:14:00,40.5,24.2,29.61,SE,146,3.5,3.5,52,0.01,CLR,,0.02,WeatherDisplay:10.37,2013-01-20 08:14:00,
2013-01-20 03:19:00,40.4,24.1,29.60,ESE,119,3.5,3.5,52,0.01,CLR,,0.02,WeatherDisplay:10.37,2013-01-20 08:19:00,
2013-01-20 03:24:00,40.3,23.6,29.60,ESE,109,5.8,5.8,51,0.01,CLR,,0.02,WeatherDisplay:10.37,2013-01-20 08:24:00,
2013-01-20 03:29:00,40.4,23.7,29.59,WSW,241,3.5,3.5,51,0.01,CLR,,0.02,WeatherDisplay:10.37,2013-01-20 08:29:00,
2013-01-20 03:34:00,40.3,24.1,29.59,SSE,167,4.6,4.6,52,0.01,CLR,,0.02,WeatherDisplay:10.37,2013-01-20 08:34:00,
2013-01-20 03:39:00,40.5,23.8,29.58,SE,130,3.5,3.5,51,0.01,CLR,,0.02,WeatherDisplay:10.37,2013-01-20 08:39:00,
2013-01-20 03:44:00,40.4,23.7,29.57,SSW,208,12.7,12.7,51,0.01,CLR,,0.02,WeatherDisplay:10.37,2013-01-20 08:44:00,
2013-01-20 03:49:00,40.4,24.1,29.57,SE,145,4.6,4.6,52,0.00,CLR,,0.02,WeatherDisplay:10.37,2013-01-20 08:49:00,
2013-01-20 03:54:00,40.5,23.8,29.57,West,261,5.8,5.8,51,0.00,CLR,,0.02,WeatherDisplay:10.37,2013-01-20 08:54:00,
2013-01-20 03:59:00,40.8,23.6,29.56,South,184,11.5,11.5,50,0.00,CLR,,0.02,WeatherDisplay:10.37,2013-01-20 08:59:00,
2013-01-20 04:04:00,40.9,23.7,29.56,SE,143,2.3,2.3,50,0.00,CLR,,0.02,WeatherDisplay:10.37,2013-01-20 09:04:00,
2013-01-20 04:09:00,40.7,24.0,29.55,ESE,119,5.8,5.8,51,0.00,CLR,,0.02,WeatherDisplay:10.37,2013-01-20 09:09:00,
2013-01-20 04:14:00,40.7,24.0,29.55,West,261,12.7,12.7,51,0.00,CLR,,0.02,WeatherDisplay:10.37,2013-01-20 09:14:00,
2013-01-20 04:19:00,40.5,24.2,29.55,SW,223,4.0,4.0,52,0.00,CLR,,0.02,WeatherDisplay:10.37,2013-01-20 09:19:00,
2013-01-20 04:24:00,40.4,24.1,29.54,WSW,249,3.5,3.5,52,0.01,RA,,0.03,WeatherDisplay:10.37,2013-01-20 09:24:00,
2013-01-20 04:29:00,40.2,24.0,29.53,WSW,252,4.0,4.0,52,0.01,RA,,0.03,WeatherDisplay:10.37,2013-01-20 09:29:00,
2013-01-20 04:34:00,40.1,23.9,29.53,NE,42,5.8,5.8,52,0.01,CLR,,0.03,WeatherDisplay:10.37,2013-01-20 09:34:00,
2013-01-20 04:39:00,39.9,24.6,29.52,NNE,22,11.5,11.5,54,0.01,CLR,,0.03,WeatherDisplay:10.37,2013-01-20 09:39:00,
2013-01-20 04:44:00,39.9,24.1,29.52,SE,132,11.5,11.5,53,0.01,CLR,,0.03,WeatherDisplay:10.37,2013-01-20 09:44:00,
2013-01-20 04:49:00,39.8,24.0,29.52,WSW,252,6.9,6.9,53,0.01,CLR,,0.03,WeatherDisplay:10.37,2013-01-20 09:49:00,
2013-01-20 04:54:00,39.7,24.4,29.52,West,281,8.1,8.1,54,0.01,CLR,,0.03,WeatherDisplay:10.37,2013-01-20 09:54:00,
2013-01-20 04:59:00,39.8,24.0,29.52,SSE,155,10.4,10.4,53,0.01,CLR,,0.03,WeatherDisplay:10.37,2013-01-20 09:59:00,
2013-01-20 05:04:00,39.8,24.5,29.51,SSE,157,10.4,10.4,54,0.01,CLR,,0.03,WeatherDisplay:10.37,2013-01-20 10:04:00,
2013-01-20 05:09:00,39.7,24.4,29.51,SSW,196,12.0,12.0,54,0.01,CLR,,0.03,WeatherDisplay:10.37,2013-01-20 10:09:00,
2013-01-20 05:14:00,39.7,24.4,29.51,SW,214,9.2,9.2,54,0.01,CLR,,0.03,WeatherDisplay:10.37,2013-01-20 10:14:00,
2013-01-20 05:19:00,39.7,24.4,29.50,SW,232,15.0,15.0,54,0.01,CLR,,0.03,WeatherDisplay:10.37,2013-01-20 10:19:00,
2013-01-20 05:24:00,39.8,24.0,29.50,South,188,18.4,18.4,53,0.00,CLR,,0.03,WeatherDisplay:10.37,2013-01-20 10:24:00,
2013-01-20 05:29:00,39.7,24.4,29.49,SSE,157,5.8,5.8,54,0.00,CLR,,0.03,WeatherDisplay:10.37,2013-01-20 10:29:00,
2013-01-20 05:34:00,39.5,24.2,29.49,West,264,3.5,4.1,54,0.00,CLR,,0.03,WeatherDisplay:10.37,2013-01-20 10:34:00,
2013-01-20 05:39:00,39.4,24.6,29.49,West,261,11.5,11.5,55,0.00,CLR,,0.03,WeatherDisplay:10.37,2013-01-20 10:39:00,
2013-01-20 05:44:00,39.3,24.5,29.48,SW,236,5.8,5.8,55,0.00,CLR,,0.03,WeatherDisplay:10.37,2013-01-20 10:44:00,
2013-01-20 05:49:00,39.2,24.4,29.47,SW,215,6.9,6.9,55,0.00,CLR,,0.03,WeatherDisplay:10.37,2013-01-20 10:49:00,
2013-01-20 05:54:00,39.0,24.6,29.47,SE,140,3.5,3.5,56,0.00,CLR,,0.03,WeatherDisplay:10.37,2013-01-20 10:54:00,
2013-01-20 05:59:00,38.9,24.5,29.46,SE,125,12.7,12.7,56,0.00,CLR,,0.03,WeatherDisplay:10.37,2013-01-20 10:59:00,
2013-01-20 06:04:00,38.9,24.9,29.46,East,86,9.2,9.2,57,0.00,CLR,,0.03,WeatherDisplay:10.37,2013-01-20 11:04:00,
2013-01-20 06:09:00,38.7,24.8,29.45,South,174,5.8,5.8,57,0.00,CLR,,0.03,WeatherDisplay:10.37,2013-01-20 11:09:00,
2013-01-20 06:14:00,38.8,24.9,29.45,SSW,211,9.2,9.2,57,0.00,CLR,,0.03,WeatherDisplay:10.37,2013-01-20 11:14:00,
2013-01-20 06:19:00,38.8,24.9,29.45,SSE,151,23.0,23.0,57,0.01,RA,,0.04,WeatherDisplay:10.37,2013-01-20 11:19:00,
2013-01-20 06:24:00,38.8,25.3,29.45,SSW,203,3.5,3.5,58,0.01,RA,,0.04,WeatherDisplay:10.37,2013-01-20 11:24:00,
2013-01-20 06:29:00,38.7,24.8,29.44,South,172,11.5,11.5,57,0.01,CLR,,0.04,WeatherDisplay:10.37,2013-01-20 11:29:00,
2013-01-20 06:34:00,38.7,24.8,29.44,SE,140,10.4,10.4,57,0.01,CLR,,0.04,WeatherDisplay:10.37,2013-01-20 11:34:00,
2013-01-20 06:39:00,38.8,24.9,29.44,South,186,8.1,8.1,57,0.01,CLR,,0.04,WeatherDisplay:10.37,2013-01-20 11:39:00,
2013-01-20 06:44:00,38.7,25.2,29.44,NNW,340,11.5,11.5,58,0.01,CLR,,0.04,WeatherDisplay:10.37,2013-01-20 11:44:00,
2013-01-20 06:49:00,38.9,25.4,29.45,WSW,249,9.2,9.2,58,0.01,CLR,,0.04,WeatherDisplay:10.37,2013-01-20 11:49:00,
2013-01-20 06:54:00,38.9,25.4,29.45,SW,233,13.8,13.8,58,0.01,CLR,,0.04,WeatherDisplay:10.37,2013-01-20 11:54:00,
2013-01-20 06:59:00,38.9,25.4,29.45,SW,217,15.0,15.0,58,0.01,CLR,,0.04,WeatherDisplay:10.37,2013-01-20 11:59:00,
2013-01-20 07:04:00,38.9,25.4,29.45,WNW,289,3.5,3.5,58,0.01,CLR,,0.04,WeatherDisplay:10.37,2013-01-20 12:04:00,
2013-01-20 07:09:00,38.7,25.6,29.45,South,179,5.8,5.8,59,0.01,CLR,,0.04,WeatherDisplay:10.37,2013-01-20 12:09:00,
2013-01-20 07:14:00,38.4,26.1,29.46,NW,316,8.1,8.1,61,0.01,CLR,,0.04,WeatherDisplay:10.37,2013-01-20 12:14:00,
2013-01-20 07:19:00,38.1,26.6,29.48,SSW,202,9.2,9.2,63,0.00,CLR,,0.04,WeatherDisplay:10.37,2013-01-20 12:19:00,
2013-01-20 07:24:00,36.8,29.6,29.49,West,275,29.0,29.0,75,0.00,CLR,,0.04,WeatherDisplay:10.37,2013-01-20 12:24:00,
2013-01-20 07:29:00,34.8,29.3,29.50,WNW,296,11.5,11.5,80,0.00,CLR,,0.04,WeatherDisplay:10.37,2013-01-20 12:29:00,
2013-01-20 07:34:00,33.6,29.9,29.51,West,261,17.3,17.3,86,0.00,CLR,,0.04,WeatherDisplay:10.37,2013-01-20 12:34:00,
2013-01-20 07:39:00,31.6,28.5,29.51,NNW,328,11.5,11.5,88,0.00,CLR,,0.04,WeatherDisplay:10.37,2013-01-20 12:39:00,
2013-01-20 07:44:00,30.1,27.3,29.52,West,263,17.3,17.3,89,0.00,CLR,,0.04,WeatherDisplay:10.37,2013-01-20 12:44:00,
2013-01-20 07:49:00,28.8,26.2,29.52,NW,317,11.5,11.5,90,0.00,CLR,,0.04,WeatherDisplay:10.37,2013-01-20 12:49:00,
2013-01-20 07:54:00,28.0,25.7,29.52,NNW,327,18.4,18.4,91,0.00,CLR,,0.04,WeatherDisplay:10.37,2013-01-20 12:54:00,
2013-01-20 07:59:00,27.6,25.3,29.52,West,260,11.5,11.5,91,0.00,CLR,,0.04,WeatherDisplay:10.37,2013-01-20 12:59:00,
2013-01-20 08:04:00,27.4,25.1,29.52,West,273,7.0,7.0,91,0.00,CLR,,0.04,WeatherDisplay:10.37,2013-01-20 13:04:00,
2013-01-20 08:09:00,27.4,25.4,29.52,West,275,4.6,4.6,92,0.00,CLR,,0.04,WeatherDisplay:10.37,2013-01-20 13:09:00,
2013-01-20 08:14:00,27.4,25.4,29.53,West,277,4.6,4.6,92,0.00,CLR,,0.04,WeatherDisplay:10.37,2013-01-20 13:14:00,
2013-01-20 08:19:00,27.4,25.4,29.53,West,277,9.2,9.2,92,0.00,CLR,,0.04,WeatherDisplay:10.37,2013-01-20 13:19:00,
2013-01-20 08:24:00,27.4,25.4,29.53,WNW,294,10.4,10.4,92,0.00,CLR,,0.04,WeatherDisplay:10.37,2013-01-20 13:24:00,
2013-01-20 08:29:00,27.4,25.4,29.53,NNW,331,5.8,5.8,92,0.00,CLR,,0.04,WeatherDisplay:10.37,2013-01-20 13:29:00,
2013-01-20 08:35:00,27.3,25.5,29.53,WSW,250,15.0,15.0,93,0.00,CLR,,0.04,WeatherDisplay:10.37,2013-01-20 13:35:00,
2013-01-20 08:40:00,27.3,25.5,29.54,SW,223,20.7,20.7,93,0.00,CLR,,0.04,WeatherDisplay:10.37,2013-01-20 13:40:00,
2013-01-20 08:45:00,27.3,25.5,29.55,West,268,17.3,17.3,93,0.00,CLR,,0.04,WeatherDisplay:10.37,2013-01-20 13:45:00,
2013-01-20 08:50:00,27.3,25.5,29.55,WNW,283,11.5,11.5,93,0.00,CLR,,0.04,WeatherDisplay:10.37,2013-01-20 13:50:00,
2013-01-20 08:55:00,27.3,25.5,29.55,West,271,9.0,9.0,93,0.00,CLR,,0.04,WeatherDisplay:10.37,2013-01-20 13:55:00,
2013-01-20 09:00:00,27.4,25.6,29.54,West,277,6.9,6.9,93,0.00,CLR,,0.04,WeatherDisplay:10.37,2013-01-20 14:00:00,
2013-01-20 09:05:00,27.4,25.6,29.55,WSW,246,20.7,20.7,93,0.00,CLR,,0.04,WeatherDisplay:10.37,2013-01-20 14:05:00,
2013-01-20 09:10:00,27.5,25.7,29.54,WNW,292,11.5,11.5,93,0.00,CLR,,0.04,WeatherDisplay:10.37,2013-01-20 14:10:00,
2013-01-20 09:15:00,27.4,25.6,29.55,West,269,11.5,11.5,93,0.00,CLR,,0.04,WeatherDisplay:10.37,2013-01-20 14:15:00,
2013-01-20 09:20:00,27.4,25.4,29.54,North,360,11.5,11.5,92,0.00,CLR,,0.04,WeatherDisplay:10.37,2013-01-20 14:20:00,
2013-01-20 09:25:00,27.4,25.4,29.54,West,265,11.5,11.5,92,0.00,CLR,,0.04,WeatherDisplay:10.37,2013-01-20 14:25:00,
2013-01-20 09:30:00,27.4,25.4,29.55,WSW,246,19.6,19.6,92,0.00,CLR,,0.04,WeatherDisplay:10.37,2013-01-20 14:30:00,
2013-01-20 09:35:00,27.4,25.4,29.55,SW,229,13.8,13.8,92,0.00,CLR,,0.04,WeatherDisplay:10.37,2013-01-20 14:35:00,
2013-01-20 09:40:00,27.4,25.4,29.56,WSW,244,15.0,15.0,92,0.00,CLR,,0.04,WeatherDisplay:10.37,2013-01-20 14:40:00,
2013-01-20 09:45:00,27.2,25.2,29.57,WSW,245,13.8,13.8,92,0.00,CLR,,0.04,WeatherDisplay:10.37,2013-01-20 14:45:00,
2013-01-20 09:50:00,27.0,25.0,29.58,WSW,246,31.1,31.1,92,0.00,CLR,,0.04,WeatherDisplay:10.37,2013-01-20 14:50:00,
2013-01-20 09:55:00,26.3,24.3,29.59,WNW,292,19.6,19.6,92,0.00,CLR,,0.04,WeatherDisplay:10.37,2013-01-20 14:55:00,
2013-01-20 10:00:00,25.7,23.7,29.59,SW,217,17.3,17.3,92,0.00,CLR,,0.04,WeatherDisplay:10.37,2013-01-20 15:00:00,
2013-01-20 10:05:00,25.2,23.2,29.60,West,272,17.3,17.3,92,0.00,CLR,,0.04,WeatherDisplay:10.37,2013-01-20 15:05:00,
2013-01-20 10:10:00,24.9,22.9,29.60,WSW,245,19.6,19.6,92,0.00,CLR,,0.04,WeatherDisplay:10.37,2013-01-20 15:10:00,
2013-01-20 10:15:00,24.6,22.6,29.61,WSW,251,16.1,16.1,92,0.00,CLR,,0.04,WeatherDisplay:10.37,2013-01-20 15:15:00,
2013-01-20 10:20:00,24.4,22.4,29.61,SW,228,20.7,20.7,92,0.00,CLR,,0.04,WeatherDisplay:10.37,2013-01-20 15:20:00,
2013-01-20 10:25:00,24.4,22.4,29.61,SSW,207,19.6,19.6,92,0.00,CLR,,0.04,WeatherDisplay:10.37,2013-01-20 15:25:00,
2013-01-20 10:30:00,24.6,22.3,29.61,NW,319,25.3,25.3,91,0.00,CLR,,0.04,WeatherDisplay:10.37,2013-01-20 15:30:00,
2013-01-20 10:35:00,25.2,22.9,29.61,SW,223,17.3,17.3,91,0.00,CLR,,0.04,WeatherDisplay:10.37,2013-01-20 15:35:00,
2013-01-20 10:40:00,25.6,23.1,29.62,WNW,286,34.5,34.5,90,0.00,CLR,,0.04,WeatherDisplay:10.37,2013-01-20 15:40:00,
2013-01-20 10:45:00,25.8,23.3,29.62,WSW,251,19.6,19.6,90,0.00,CLR,,0.04,WeatherDisplay:10.37,2013-01-20 15:45:00,
2013-01-20 10:50:00,25.9,23.4,29.62,NW,311,6.9,6.9,90,0.00,CLR,,0.04,WeatherDisplay:10.37,2013-01-20 15:50:00,
2013-01-20 10:55:00,25.6,23.1,29.63,WSW,257,19.6,19.6,90,0.00,CLR,,0.04,WeatherDisplay:10.37,2013-01-20 15:55:00,
2013-01-20 11:00:00,24.8,22.5,29.63,WSW,248,17.0,17.0,91,0.00,CLR,,0.04,WeatherDisplay:10.37,2013-01-20 16:00:00,
2013-01-20 11:05:00,24.0,21.8,29.64,WNW,287,16.1,16.1,91,0.00,CLR,,0.04,WeatherDisplay:10.37,2013-01-20 16:05:00,
2013-01-20 11:10:00,23.8,21.6,29.63,West,263,23.0,23.0,91,0.00,CLR,,0.04,WeatherDisplay:10.37,2013-01-20 16:10:00,
2013-01-20 11:15:00,23.8,21.6,29.64,NW,306,13.8,13.8,91,0.00,CLR,,0.04,WeatherDisplay:10.37,2013-01-20 16:15:00,
2013-01-20 11:20:00,23.7,21.5,29.65,West,271,19.6,19.6,91,0.00,CLR,,0.04,WeatherDisplay:10.37,2013-01-20 16:20:00,
2013-01-20 11:25:00,23.9,21.7,29.64,West,275,15.0,15.0,91,0.00,CLR,,0.04,WeatherDisplay:10.37,2013-01-20 16:25:00,
2013-01-20 11:30:00,24.3,21.8,29.67,West,271,25.3,25.3,90,0.00,CLR,,0.04,WeatherDisplay:10.37,2013-01-20 16:30:00,
2013-01-20 11:35:00,24.7,21.9,29.65,WNW,300,24.2,24.2,89,0.00,CLR,,0.04,WeatherDisplay:10.37,2013-01-20 16:35:00,
2013-01-20 11:40:00,24.6,21.3,29.66,West,280,24.2,24.2,87,0.00,CLR,,0.04,WeatherDisplay:10.37,2013-01-20 16:40:00,
2013-01-20 11:45:00,24.5,21.5,29.65,SSW,210,26.5,26.5,88,0.00,CLR,,0.04,WeatherDisplay:10.37,2013-01-20 16:45:00,
2013-01-20 11:50:00,23.9,21.4,29.65,North,350,21.9,21.9,90,0.00,CLR,,0.04,WeatherDisplay:10.37,2013-01-20 16:50:00,
2013-01-20 11:55:00,23.5,21.0,29.66,WSW,242,12.7,12.7,90,0.00,CLR,,0.04,WeatherDisplay:10.37,2013-01-20 16:55:00,
2013-01-20 12:00:00,22.8,20.6,29.65,WNW,295,20.0,20.0,91,0.00,CLR,,0.04,WeatherDisplay:10.37,2013-01-20 17:00:00,
2013-01-20 12:05:00,22.5,20.3,29.65,West,260,18.4,18.4,91,0.00,CLR,,0.04,WeatherDisplay:10.37,2013-01-20 17:05:00,
2013-01-20 12:10:00,22.5,20.0,29.65,NW,305,20.7,20.7,90,0.00,CLR,,0.04,WeatherDisplay:10.37,2013-01-20 17:10:00,
2013-01-20 12:15:00,22.6,20.1,29.65,NNW,345,26.5,26.5,90,0.00,CLR,,0.04,WeatherDisplay:10.37,2013-01-20 17:15:00,
2013-01-20 12:20:00,23.4,20.6,29.65,WNW,296,21.9,21.9,89,0.00,CLR,,0.04,WeatherDisplay:10.37,2013-01-20 17:20:00,
2013-01-20 12:25:00,23.5,20.5,29.65,NW,317,19.6,19.6,88,0.00,CLR,,0.04,WeatherDisplay:10.37,2013-01-20 17:25:00,
2013-01-20 12:30:00,23.1,20.1,29.66,West,275,19.6,19.6,88,0.00,CLR,,0.04,WeatherDisplay:10.37,2013-01-20 17:30:00,
2013-01-20 12:35:00,23.0,20.2,29.66,West,263,11.5,11.5,89,0.00,CLR,,0.04,WeatherDisplay:10.37,2013-01-20 17:35:00,
2013-01-20 12:40:00,22.9,20.1,29.67,West,268,17.3,17.3,89,0.00,CLR,,0.04,WeatherDisplay:10.37,2013-01-20 17:40:00,
2013-01-20 12:45:00,22.5,20.0,29.67,WSW,245,22.0,22.0,90,0.00,CLR,,0.04,WeatherDisplay:10.37,2013-01-20 17:45:00,
2013-01-20 12:50:00,22.1,19.6,29.67,West,267,11.0,11.0,90,0.00,CLR,,0.04,WeatherDisplay:10.37,2013-01-20 17:50:00,
2013-01-20 12:55:00,22.1,19.6,29.67,West,267,20.7,20.7,90,0.00,CLR,,0.04,WeatherDisplay:10.37,2013-01-20 17:55:00,
2013-01-20 13:00:00,22.1,19.4,29.68,WSW,250,24.2,24.2,89,0.00,CLR,,0.04,WeatherDisplay:10.37,2013-01-20 18:00:00,
2013-01-20 13:05:00,22.2,18.9,29.68,WSW,241,19.6,19.6,87,0.00,CLR,,0.04,WeatherDisplay:10.37,2013-01-20 18:05:00,
2013-01-20 13:10:00,22.1,18.8,29.69,WNW,288,11.5,11.5,87,0.00,CLR,,0.04,WeatherDisplay:10.37,2013-01-20 18:10:00,
2013-01-20 13:15:00,21.8,18.5,29.69,SW,232,11.5,11.5,87,0.00,CLR,,0.04,WeatherDisplay:10.37,2013-01-20 18:15:00,
2013-01-20 13:20:00,21.3,18.3,29.70,SW,232,18.4,18.4,88,0.00,CLR,,0.04,WeatherDisplay:10.37,2013-01-20 18:20:00,
2013-01-20 13:25:00,21.1,18.1,29.70,WSW,246,19.6,19.6,88,0.00,CLR,,0.04,WeatherDisplay:10.37,2013-01-20 18:25:00,
2013-01-20 13:30:00,21.2,17.9,29.71,WSW,242,18.4,18.4,87,0.00,CLR,,0.04,WeatherDisplay:10.37,2013-01-20 18:30:00,
2013-01-20 13:35:00,21.1,17.6,29.70,NW,321,34.5,34.5,86,0.00,CLR,,0.04,WeatherDisplay:10.37,2013-01-20 18:35:00,
2013-01-20 13:40:00,21.2,17.1,29.71,West,276,11.5,11.5,84,0.00,CLR,,0.04,WeatherDisplay:10.37,2013-01-20 18:40:00,
2013-01-20 13:45:00,21.0,16.9,29.72,SW,214,16.1,16.1,84,0.00,CLR,,0.04,WeatherDisplay:10.37,2013-01-20 18:45:00,
2013-01-20 13:50:00,21.1,17.3,29.71,NW,308,13.8,13.8,85,0.00,CLR,,0.04,WeatherDisplay:10.37,2013-01-20 18:50:00,
2013-01-20 13:55:00,20.8,17.0,29.72,West,279,19.6,19.6,85,0.00,CLR,,0.04,WeatherDisplay:10.37,2013-01-20 18:55:00,
2013-01-20 14:00:00,20.8,17.0,29.72,SSW,200,11.5,11.5,85,0.00,CLR,,0.04,WeatherDisplay:10.37,2013-01-20 19:00:00,
2013-01-20 14:05:00,20.5,16.7,29.73,West,261,21.9,21.9,85,0.00,CLR,,0.04,WeatherDisplay:10.37,2013-01-20 19:05:00,
2013-01-20 14:10:00,20.5,16.7,29.73,WSW,254,17.0,17.0,85,0.00,CLR,,0.04,WeatherDisplay:10.37,2013-01-20 19:10:00,
2013-01-20 14:15:00,20.7,17.2,29.73,WSW,242,3.5,5.7,86,0.00,CLR,,0.04,WeatherDisplay:10.37,2013-01-20 19:15:00,
2013-01-20 14:20:00,20.4,16.6,29.74,East,79,19.6,19.6,85,0.00,CLR,,0.04,WeatherDisplay:10.37,2013-01-20 19:20:00,
2013-01-20 14:25:00,20.4,16.6,29.74,NW,308,11.5,11.5,85,0.00,CLR,,0.04,WeatherDisplay:10.37,2013-01-20 19:25:00,
2013-01-20 14:30:00,20.4,16.6,29.74,WSW,248,15.0,15.0,85,0.00,CLR,,0.04,WeatherDisplay:10.37,2013-01-20 19:30:00,
2013-01-20 14:35:00,20.4,16.9,29.74,West,273,16.1,16.1,86,0.00,CLR,,0.04,WeatherDisplay:10.37,2013-01-20 19:35:00,
2013-01-20 14:40:00,20.6,17.3,29.75,WSW,252,10.4,10.4,87,0.00,CLR,,0.04,WeatherDisplay:10.37,2013-01-20 19:40:00,
2013-01-20 14:45:00,20.2,17.0,29.75,West,259,5.8,5.8,87,0.00,CLR,,0.04,WeatherDisplay:10.37,2013-01-20 19:45:00,
2013-01-20 14:50:00,20.0,17.0,29.75,WNW,289,15.0,15.0,88,0.00,CLR,,0.04,WeatherDisplay:10.37,2013-01-20 19:50:00,
2013-01-20 14:55:00,19.8,17.1,29.75,WSW,254,15.0,15.0,89,0.00,CLR,,0.04,WeatherDisplay:10.37,2013-01-20 19:55:00,
2013-01-20 15:00:00,19.7,17.2,29.76,West,272,5.8,5.8,90,0.00,CLR,,0.04,WeatherDisplay:10.37,2013-01-20 20:00:00,
2013-01-20 15:05:00,19.7,17.2,29.76,WSW,248,10.4,10.4,90,0.00,CLR,,0.04,WeatherDisplay:10.37,2013-01-20 20:05:00,
2013-01-20 15:10:00,19.7,17.2,29.76,WSW,241,15.0,15.0,90,0.00,CLR,,0.04,WeatherDisplay:10.37,2013-01-20 20:10:00,
2013-01-20 15:15:00,19.7,17.2,29.77,West,277,3.5,4.4,90,0.00,CLR,,0.04,WeatherDisplay:10.37,2013-01-20 20:15:00,
2013-01-20 15:20:00,19.7,17.2,29.77,West,259,16.1,16.1,90,0.00,CLR,,0.04,WeatherDisplay:10.37,2013-01-20 20:20:00,
2013-01-20 15:25:00,19.5,17.0,29.78,WNW,291,11.5,11.5,90,0.00,CLR,,0.04,WeatherDisplay:10.37,2013-01-20 20:25:00,
2013-01-20 15:30:00,19.3,16.8,29.79,WNW,284,23.0,23.0,90,0.00,CLR,,0.04,WeatherDisplay:10.37,2013-01-20 20:30:00,
2013-01-20 15:35:00,18.8,16.4,29.79,NW,311,12.7,12.7,90,0.00,CLR,,0.04,WeatherDisplay:10.37,2013-01-20 20:35:00,
2013-01-20 15:40:00,18.4,16.0,29.80,WNW,292,21.9,21.9,90,0.00,CLR,,0.04,WeatherDisplay:10.37,2013-01-20 20:40:00,
2013-01-20 15:45:00,18.3,15.9,29.80,West,263,23.0,23.0,90,0.00,CLR,,0.04,WeatherDisplay:10.37,2013-01-20 20:45:00,
2013-01-20 15:50:00,18.6,16.2,29.81,WNW,298,17.3,17.3,90,0.00,CLR,,0.04,WeatherDisplay:10.37,2013-01-20 20:50:00,
2013-01-20 15:56:00,18.9,16.2,29.81,West,267,16.1,16.1,89,0.00,CLR,,0.04,WeatherDisplay:10.37,2013-01-20 20:56:00,
2013-01-20 16:01:00,18.9,16.2,29.81,West,279,21.9,21.9,89,0.00,CLR,,0.04,WeatherDisplay:10.37,2013-01-20 21:01:00,
2013-01-20 16:06:00,19.1,16.4,29.82,NW,326,11.5,11.5,89,0.00,CLR,,0.04,WeatherDisplay:10.37,2013-01-20 21:06:00,
2013-01-20 16:11:00,19.1,16.4,29.82,WNW,284,13.0,13.0,89,0.00,CLR,,0.04,WeatherDisplay:10.37,2013-01-20 21:11:00,
2013-01-20 16:16:00,19.1,16.1,29.82,WSW,240,11.5,11.5,88,0.00,CLR,,0.04,WeatherDisplay:10.37,2013-01-20 21:16:00,
2013-01-20 16:21:00,18.9,15.9,29.83,WSW,250,16.1,16.1,88,0.00,CLR,,0.04,WeatherDisplay:10.37,2013-01-20 21:21:00,
2013-01-20 16:26:00,18.8,15.3,29.83,West,277,25.3,25.3,86,0.00,CLR,,0.04,WeatherDisplay:10.37,2013-01-20 21:26:00,
2013-01-20 16:31:00,18.4,14.6,29.83,WSW,256,15.0,15.0,85,0.00,CLR,,0.04,WeatherDisplay:10.37,2013-01-20 21:31:00,
2013-01-20 16:36:00,18.0,14.0,29.84,West,267,20.7,20.7,84,0.00,CLR,,0.04,WeatherDisplay:10.37,2013-01-20 21:36:00,
2013-01-20 16:41:00,17.7,13.1,29.84,West,275,18.4,18.4,82,0.00,CLR,,0.04,WeatherDisplay:10.37,2013-01-20 21:41:00,
2013-01-20 16:46:00,17.4,12.3,29.84,WNW,282,19.6,19.6,80,0.00,CLR,,0.04,WeatherDisplay:10.37,2013-01-20 21:46:00,
2013-01-20 16:51:00,17.3,11.9,29.85,WSW,245,19.6,19.6,79,0.00,CLR,,0.04,WeatherDisplay:10.37,2013-01-20 21:51:00,
2013-01-20 16:57:00,17.2,11.8,29.85,WNW,291,16.1,16.1,79,0.00,CLR,,0.04,WeatherDisplay:10.37,2013-01-20 21:57:00,
2013-01-20 17:02:00,16.9,11.2,29.86,WNW,303,19.6,19.6,78,0.00,CLR,,0.04,WeatherDisplay:10.37,2013-01-20 22:02:00,
2013-01-20 17:07:00,16.8,11.1,29.86,WNW,300,16.1,16.1,78,0.00,CLR,,0.04,WeatherDisplay:10.37,2013-01-20 22:07:00,
2013-01-20 17:12:00,16.6,10.9,29.86,WNW,300,16.1,16.1,78,0.00,CLR,,0.04,WeatherDisplay:10.37,2013-01-20 22:12:00,
2013-01-20 17:17:00,16.2,10.5,29.86,West,264,26.5,26.5,78,0.00,CLR,,0.04,WeatherDisplay:10.37,2013-01-20 22:17:00,
2013-01-20 17:22:00,16.1,10.2,29.86,NW,319,16.1,16.1,77,0.00,CLR,,0.04,WeatherDisplay:10.37,2013-01-20 22:22:00,
2013-01-20 17:27:00,16.0,10.3,29.87,SW,235,13.8,13.8,78,0.00,CLR,,0.04,WeatherDisplay:10.37,2013-01-20 22:27:00,
2013-01-20 17:32:00,15.9,10.0,29.88,WNW,292,9.2,9.2,77,0.00,CLR,,0.04,WeatherDisplay:10.37,2013-01-20 22:32:00,
2013-01-20 17:37:00,15.7,9.8,29.89,WNW,294,21.9,21.9,77,0.00,CLR,,0.04,WeatherDisplay:10.37,2013-01-20 22:37:00,
2013-01-20 17:42:00,15.4,9.2,29.89,West,281,15.0,15.0,76,0.00,CLR,,0.04,WeatherDisplay:10.37,2013-01-20 22:42:00,
2013-01-20 17:47:00,15.3,8.8,29.89,WSW,245,15.0,15.0,75,0.00,CLR,,0.04,WeatherDisplay:10.37,2013-01-20 22:47:00,
2013-01-20 17:52:00,15.2,8.7,29.89,WSW,258,10.4,10.4,75,0.00,CLR,,0.04,WeatherDisplay:10.37,2013-01-20 22:52:00,
2013-01-20 17:57:00,15.2,8.7,29.90,West,271,20.7,20.7,75,0.00,CLR,,0.04,WeatherDisplay:10.37,2013-01-20 22:57:00,
2013-01-20 18:02:00,15.1,8.6,29.90,WSW,237,10.4,10.4,75,0.00,CLR,,0.04,WeatherDisplay:10.37,2013-01-20 23:02:00,
2013-01-20 18:07:00,15.2,8.7,29.90,WSW,250,8.0,8.0,75,0.00,CLR,,0.04,WeatherDisplay:10.37,2013-01-20 23:07:00,
2013-01-20 18:12:00,14.9,9.0,29.91,NNW,330,11.5,11.5,77,0.00,CLR,,0.04,WeatherDisplay:10.37,2013-01-20 23:12:00,
2013-01-20 18:17:00,14.4,9.1,29.90,North,9,12.7,12.7,79,0.00,CLR,,0.04,WeatherDisplay:10.37,2013-01-20 23:17:00,
2013-01-20 18:22:00,14.3,9.0,29.91,WNW,291,9.2,9.2,79,0.00,CLR,,0.04,WeatherDisplay:10.37,2013-01-20 23:22:00,
2013-01-20 18:28:00,14.2,8.3,29.91,NNE,15,16.1,16.1,77,0.00,CLR,,0.04,WeatherDisplay:10.37,2013-01-20 23:28:00,
2013-01-20 18:33:00,14.1,8.2,29.91,WSW,249,13.8,13.8,77,0.00,CLR,,0.04,WeatherDisplay:10.37,2013-01-20 23:33:00,
2013-01-20 18:38:00,14.1,7.9,29.91,NW,314,16.1,16.1,76,0.00,CLR,,0.04,WeatherDisplay:10.37,2013-01-20 23:38:00,
2013-01-20 18:43:00,14.1,7.6,29.93,WSW,256,5.8,7.7,75,0.00,CLR,,0.04,WeatherDisplay:10.37,2013-01-20 23:43:00,
2013-01-20 18:48:00,14.1,7.6,29.93,SW,236,16.1,16.1,75,0.00,CLR,,0.04,WeatherDisplay:10.37,2013-01-20 23:48:00,
2013-01-20 18:53:00,14.0,7.2,29.93,NNW,346,10.4,10.4,74,0.00,CLR,,0.04,WeatherDisplay:10.37,2013-01-20 23:53:00,
2013-01-20 18:58:00,13.8,7.0,29.93,NW,304,15.0,15.0,74,0.00,CLR,,0.04,WeatherDisplay:10.37,2013-01-20 23:58:00,
2013-01-20 19:03:00,13.5,6.5,29.93,WSW,250,17.3,17.3,73,0.00,CLR,,0.04,WeatherDisplay:10.37,2013-01-21 00:03:00,
2013-01-20 19:08:00,13.4,6.7,29.94,WSW,242,12.0,12.0,74,0.00,CLR,,0.04,WeatherDisplay:10.37,2013-01-21 00:08:00,
2013-01-20 19:13:00,13.3,6.9,29.94,WSW,254,12.7,12.7,75,0.00,CLR,,0.04,WeatherDisplay:10.37,2013-01-21 00:13:00,
2013-01-20 19:18:00,13.2,6.5,29.94,West,277,18.4,18.4,74,0.00,CLR,,0.04,WeatherDisplay:10.37,2013-01-21 00:18:00,
2013-01-20 19:23:00,13.1,6.4,29.94,WSW,251,13.8,13.8,74,0.00,CLR,,0.04,WeatherDisplay:10.37,2013-01-21 00:23:00,
2013-01-20 19:28:00,13.0,6.0,29.94,West,263,12.7,12.7,73,0.00,CLR,,0.04,WeatherDisplay:10.37,2013-01-21 00:28:00,
2013-01-20 19:33:00,13.0,6.0,29.94,North,355,13.8,13.8,73,0.00,CLR,,0.04,WeatherDisplay:10.37,2013-01-21 00:33:00,
2013-01-20 19:38:00,12.8,5.5,29.94,West,271,15.0,15.0,72,0.00,CLR,,0.04,WeatherDisplay:10.37,2013-01-21 00:38:00,
2013-01-20 19:43:00,12.8,5.5,29.95,SW,233,8.1,8.1,72,0.00,CLR,,0.04,WeatherDisplay:10.37,2013-01-21 00:43:00,
2013-01-20 19:48:00,12.8,5.2,29.95,NW,311,11.5,11.5,71,0.00,CLR,,0.04,WeatherDisplay:10.37,2013-01-21 00:48:00,
2013-01-20 19:53:00,12.7,5.1,29.95,NNW,345,11.5,11.5,71,0.00,CLR,,0.04,WeatherDisplay:10.37,2013-01-21 00:53:00,
2013-01-20 19:58:00,12.6,5.3,29.95,NNW,331,3.5,6.6,72,0.00,CLR,,0.04,WeatherDisplay:10.37,2013-01-21 00:58:00,
2013-01-20 20:03:00,12.5,5.2,29.96,WNW,287,10.4,10.4,72,0.00,CLR,,0.04,WeatherDisplay:10.37,2013-01-21 01:03:00,
2013-01-20 20:08:00,12.3,5.0,29.96,NW,306,13.8,13.8,72,0.00,CLR,,0.04,WeatherDisplay:10.37,2013-01-21 01:08:00,
2013-01-20 20:13:00,12.2,5.2,29.96,West,276,11.5,11.5,73,0.00,CLR,,0.04,WeatherDisplay:10.37,2013-01-21 01:13:00,
2013-01-20 20:18:00,12.0,5.0,29.96,NW,318,11.5,11.5,73,0.00,CLR,,0.04,WeatherDisplay:10.37,2013-01-21 01:18:00,
2013-01-20 20:23:00,11.9,5.2,29.97,WNW,290,10.4,10.4,74,0.00,CLR,,0.04,WeatherDisplay:10.37,2013-01-21 01:23:00,
2013-01-20 20:28:00,11.7,5.0,29.97,NW,314,11.5,11.5,74,0.00,CLR,,0.04,WeatherDisplay:10.37,2013-01-21 01:28:00,
2013-01-20 20:34:00,11.6,5.2,29.97,WNW,301,15.0,15.0,75,0.00,CLR,,0.04,WeatherDisplay:10.37,2013-01-21 01:34:00,
2013-01-20 20:39:00,11.4,5.3,29.97,WNW,301,12.7,12.7,76,0.00,CLR,,0.04,WeatherDisplay:10.37,2013-01-21 01:39:00,
2013-01-20 20:44:00,11.3,5.2,29.97,WSW,254,15.0,15.0,76,0.00,CLR,,0.04,WeatherDisplay:10.37,2013-01-21 01:44:00,
2013-01-20 20:49:00,11.3,4.9,29.97,South,191,13.8,13.8,75,0.00,CLR,,0.04,WeatherDisplay:10.37,2013-01-21 01:49:00,
2013-01-20 20:54:00,11.4,5.0,29.98,NW,313,10.4,10.4,75,0.00,CLR,,0.04,WeatherDisplay:10.37,2013-01-21 01:54:00,
2013-01-20 20:59:00,11.3,4.6,29.97,NW,318,9.2,9.2,74,0.00,CLR,,0.04,WeatherDisplay:10.37,2013-01-21 01:59:00,
2013-01-20 21:04:00,11.3,4.6,29.98,West,279,12.7,12.7,74,0.00,CLR,,0.04,WeatherDisplay:10.37,2013-01-21 02:04:00,
2013-01-20 21:09:00,11.2,4.5,29.98,WSW,237,13.8,13.8,74,0.00,CLR,,0.04,WeatherDisplay:10.37,2013-01-21 02:09:00,
2013-01-20 21:14:00,11.2,3.9,29.98,WSW,244,16.1,16.1,72,0.00,CLR,,0.04,WeatherDisplay:10.37,2013-01-21 02:14:00,
2013-01-20 21:19:00,11.1,3.5,29.99,WNW,303,13.8,13.8,71,0.00,CLR,,0.04,WeatherDisplay:10.37,2013-01-21 02:19:00,
2013-01-20 21:24:00,11.1,3.5,29.99,West,273,12.7,12.7,71,0.00,CLR,,0.04,WeatherDisplay:10.37,2013-01-21 02:24:00,
2013-01-20 21:29:00,11.1,3.5,29.99,West,281,13.8,13.8,71,0.00,CLR,,0.04,WeatherDisplay:10.37,2013-01-21 02:29:00,
2013-01-20 21:34:00,11.1,3.5,29.99,NNE,22,11.5,11.5,71,0.00,CLR,,0.04,WeatherDisplay:10.37,2013-01-21 02:34:00,
2013-01-20 21:39:00,11.0,3.1,29.99,NW,313,16.1,16.1,70,0.00,CLR,,0.04,WeatherDisplay:10.37,2013-01-21 02:39:00,
2013-01-20 21:44:00,11.0,3.4,29.99,West,280,12.7,12.7,71,0.00,CLR,,0.04,WeatherDisplay:10.37,2013-01-21 02:44:00,
2013-01-20 21:49:00,11.0,3.1,29.99,WSW,253,10.4,10.4,70,0.00,CLR,,0.04,WeatherDisplay:10.37,2013-01-21 02:49:00,
2013-01-20 21:54:00,10.9,3.0,30.00,NNE,18,11.5,11.5,70,0.00,CLR,,0.04,WeatherDisplay:10.37,2013-01-21 02:54:00,
2013-01-20 21:59:00,10.8,2.9,30.00,WSW,256,9.2,9.2,70,0.00,CLR,,0.04,WeatherDisplay:10.37,2013-01-21 02:59:00,
2013-01-20 22:04:00,10.7,2.5,29.99,WSW,252,19.6,19.6,69,0.00,CLR,,0.04,WeatherDisplay:10.37,2013-01-21 03:04:00,
2013-01-20 22:09:00,10.5,2.6,30.00,North,360,8.0,8.0,70,0.00,CLR,,0.04,WeatherDisplay:10.37,2013-01-21 03:09:00,
2013-01-20 22:14:00,10.4,2.2,30.00,SW,236,19.6,19.6,69,0.00,CLR,,0.04,WeatherDisplay:10.37,2013-01-21 03:14:00,
2013-01-20 22:19:00,10.3,2.1,30.00,WSW,244,19.6,19.6,69,0.00,CLR,,0.04,WeatherDisplay:10.37,2013-01-21 03:19:00,
2013-01-20 22:24:00,10.3,2.1,30.00,West,269,11.0,11.0,69,0.00,CLR,,0.04,WeatherDisplay:10.37,2013-01-21 03:24:00,
2013-01-20 22:29:00,10.2,2.0,30.00,West,260,13.8,13.8,69,0.00,CLR,,0.04,WeatherDisplay:10.37,2013-01-21 03:29:00,
2013-01-20 22:34:00,10.1,1.9,30.00,WSW,258,10.4,10.4,69,0.00,CLR,,0.04,WeatherDisplay:10.37,2013-01-21 03:34:00,
2013-01-20 22:39:00,10.0,2.2,30.01,West,264,12.7,12.7,70,0.00,CLR,,0.04,WeatherDisplay:10.37,2013-01-21 03:39:00,
2013-01-20 22:44:00,9.9,1.8,30.01,North,360,13.8,13.8,69,0.00,CLR,,0.04,WeatherDisplay:10.37,2013-01-21 03:44:00,
2013-01-20 22:49:00,9.9,1.8,30.01,West,263,13.8,13.8,69,0.00,CLR,,0.04,WeatherDisplay:10.37,2013-01-21 03:49:00,
2013-01-20 22:54:00,9.9,1.8,30.01,NNW,329,11.5,11.5,69,0.00,CLR,,0.04,WeatherDisplay:10.37,2013-01-21 03:54:00,
2013-01-20 22:59:00,9.7,1.6,30.01,WSW,244,13.0,13.0,69,0.00,CLR,,0.04,WeatherDisplay:10.37,2013-01-21 03:59:00,
2013-01-20 23:04:00,9.5,1.7,30.02,NNW,336,10.4,10.4,70,0.00,CLR,,0.04,WeatherDisplay:10.37,2013-01-21 04:04:00,
2013-01-20 23:09:00,9.5,1.7,30.01,West,275,4.6,4.6,70,0.00,CLR,,0.04,WeatherDisplay:10.37,2013-01-21 04:09:00,
2013-01-20 23:14:00,9.4,1.3,30.02,WNW,288,13.8,13.8,69,0.00,CLR,,0.04,WeatherDisplay:10.37,2013-01-21 04:14:00,
2013-01-20 23:19:00,9.3,1.2,30.02,WSW,247,6.9,6.9,69,0.00,CLR,,0.04,WeatherDisplay:10.37,2013-01-21 04:19:00,
2013-01-20 23:24:00,9.2,1.4,30.02,North,360,12.7,12.7,70,0.00,CLR,,0.04,WeatherDisplay:10.37,2013-01-21 04:24:00,
2013-01-20 23:29:00,9.1,1.3,30.01,West,262,5.8,6.3,70,0.00,CLR,,0.04,WeatherDisplay:10.37,2013-01-21 04:29:00,
2013-01-20 23:34:00,9.0,1.2,30.02,WNW,283,13.8,13.8,70,0.00,CLR,,0.04,WeatherDisplay:10.37,2013-01-21 04:34:00,
2013-01-20 23:39:00,8.8,1.0,30.02,WNW,286,9.2,9.2,70,0.00,CLR,,0.04,WeatherDisplay:10.37,2013-01-21 04:39:00,
2013-01-20 23:44:00,8.7,1.2,30.02,NW,311,4.0,4.0,71,0.00,CLR,,0.04,WeatherDisplay:10.37,2013-01-21 04:44:00,
2013-01-20 23:49:00,8.7,1.2,30.01,NW,315,12.7,12.7,71,0.00,CLR,,0.04,WeatherDisplay:10.37,2013-01-21 04:49:00,
2013-01-20 23:54:00,8.7,1.2,30.01,WSW,253,11.5,11.5,71,0.00,CLR,,0.04,WeatherDisplay:10.37,2013-01-21 04:54:00,
2013-01-20 23:59:00,8.6,1.1,30.02,West,277,6.9,7.4,71,0.00,CLR,,0.04,WeatherDisplay:10.37,2013-01-21 04:59:00,